Cairo, Egypt

9:58 PM EET on January 24, 2017 (GMT +0200)
Cairo International

Weather History for HECA - May, 2013

Change the Weather History Date:

Wednesday, May 1, 2013

  Actual Average Record
Temperature  
Mean Temperature 80 °F -  
Max Temperature 95 °F 87 °F 98 °F (1998)
Min Temperature 64 °F 64 °F 57 °F (2003)
Cooling Degree Days 14    
Growing Degree Days 30 (Base 50)    
Moisture  
Dew Point 47 °F    
Average Humidity 35    
Maximum Humidity 60    
Minimum Humidity 7    
Precipitation  
Precipitation 0.00 in 0.00 in - ()
Sea Level Pressure  
Sea Level Pressure 29.87 in    
Wind  
Wind Speed 8 mph ()    
Max Wind Speed 18 mph    
Max Gust Speed -    
Visibility 2.8 miles    
Events      
Averages and records for this station are not official NWS values.
T = Trace of Precipitation, MM = Missing Value Source: Averaged Metar Reports

Daily Weather History Graph

Daily Weather History Graph

Search for Another Location

Airport or City:

Trip Planner

Search our weather history database for the weather conditions in past years. The results will help you decide how hot, cold, wet, or windy it might be!

Date:

Astronomy

May. 01, 2013 Rise Set
Actual Time 5:11 AM EET 6:31 PM EET
Civil Twilight 4:46 AM EET 6:57 PM EET
Nautical Twilight 4:15 AM EET 7:27 PM EET
Astronomical Twilight 3:44 AM EET 7:59 PM EET
Moon No Moon Rise 10:27 AM EET (5/1)
Length of Visible Light 14h 11m
Length of Day
13h 20m
Waning Gibbous, 62% of the Moon is Illuminated
May 1
Waning Gibbous
May 2
Last Quarter
May 10
New
May 18
First Quarter
May 25
Full

Hourly Weather History & Observations

Time (EET) Temp. Dew Point Humidity Pressure Visibility Wind Dir Wind Speed Gust Speed Precip Events Conditions
12:00 AM 73.4 °F 46.4 °F 38% 29.95 in - NE 11.5 mph - N/A   Clear
12:30 AM 73.4 °F 46.4 °F 38% 29.95 in - NE 11.5 mph - N/A   Clear
1:00 AM 69.8 °F 46.4 °F 43% 29.92 in - NE 6.9 mph - N/A   Clear
1:30 AM 69.8 °F 44.6 °F 40% 29.92 in - NE 6.9 mph - N/A   Clear
2:00 AM 69 °F 46 °F 33% 29.93 in 6 mi NE 6.9 mph - -  
2:00 AM 69.8 °F 46.4 °F 43% 29.92 in - NE 6.9 mph - N/A   Clear
2:30 AM 68.0 °F 46.4 °F 46% 29.92 in - ENE 6.9 mph - N/A   Clear
3:00 AM 68.0 °F 46.4 °F 46% 29.92 in - NE 5.8 mph - N/A   Clear
3:30 AM 68.0 °F 46.4 °F 46% 29.92 in - ENE 5.8 mph - N/A   Clear
4:00 AM 66.2 °F 46.4 °F 49% 29.89 in - NE 4.6 mph - N/A   Clear
4:30 AM 66.2 °F 46.4 °F 49% 29.89 in - NNE 4.6 mph - N/A   Clear
5:00 AM 66.2 °F 44.6 °F 46% 29.89 in 3.7 mi NE 3.5 mph - N/A   Unknown
5:30 AM 66.2 °F 50.0 °F 56% 29.92 in 2.5 mi North 4.6 mph - N/A   Haze
6:00 AM 66.2 °F 50.0 °F 56% 29.92 in 2.5 mi NE 3.5 mph - N/A   Haze
6:30 AM 68.0 °F 51.8 °F 56% 29.92 in 2.5 mi NE 3.5 mph - N/A   Haze
7:00 AM 69.8 °F 55.4 °F 60% 29.92 in 1.2 mi North 4.6 mph - N/A   Haze
7:30 AM 71.6 °F 57.2 °F 60% 29.92 in 1.2 mi North 4.6 mph - N/A   Haze
8:00 AM 71 °F 56 °F 50% 29.93 in 1 mi North 4.6 mph - -   Haze
8:00 AM 71.6 °F 57.2 °F 60% 29.92 in 1.2 mi North 4.6 mph - N/A   Haze
8:30 AM 73.4 °F 55.4 °F 53% 29.92 in 1.2 mi NNE 4.6 mph - N/A   Haze
9:00 AM 77.0 °F 53.6 °F 44% 29.92 in 1.2 mi North 4.6 mph - N/A   Haze
9:30 AM 78.8 °F 53.6 °F 42% 29.92 in 1.2 mi NNW 5.8 mph - N/A   Haze
10:00 AM 80.6 °F 50.0 °F 34% 29.92 in 1.2 mi North 8.1 mph - N/A   Haze
10:30 AM 82.4 °F 46.4 °F 28% 29.89 in 1.9 mi North 8.1 mph - N/A   Haze
11:00 AM 84.2 °F 46.4 °F 27% 29.89 in 2.5 mi North 8.1 mph - N/A   Haze
11:30 AM 86.0 °F 41.0 °F 20% 29.89 in 3.7 mi North 10.4 mph - N/A   Unknown
12:00 PM 87.8 °F 41.0 °F 19% 29.89 in 3.7 mi North 11.5 mph - N/A   Unknown
12:30 PM 89.6 °F 41.0 °F 18% 29.86 in 3.7 mi North 11.5 mph - N/A   Unknown
1:00 PM 91.4 °F 39.2 °F 16% 29.86 in 3.7 mi North 11.5 mph - N/A   Unknown
1:30 PM 91.4 °F 39.2 °F 16% 29.83 in 3.7 mi North 10.4 mph - N/A   Unknown
2:00 PM 92 °F 36 °F 7% 29.83 in 6 mi North 11.5 mph - -  
2:00 PM 93.2 °F 35.6 °F 13% 29.83 in - North 11.5 mph - N/A   Clear
2:30 PM 93.2 °F 35.6 °F 13% 29.83 in - NNE 11.5 mph - N/A   Clear
3:00 PM 93.2 °F 39.2 °F 15% 29.80 in - North 12.7 mph - N/A   Clear
3:30 PM 93.2 °F 37.4 °F 14% 29.80 in - North 12.7 mph - N/A   Clear
4:00 PM 93.2 °F 37.4 °F 14% 29.80 in - North 13.8 mph - N/A   Clear
4:30 PM 93.2 °F 37.4 °F 14% 29.80 in - North 12.7 mph - N/A   Clear
5:00 PM 93.2 °F 41.0 °F 16% 29.77 in - North 15.0 mph - N/A   Clear
5:30 PM 91.4 °F 41.0 °F 17% 29.80 in - NNW 16.1 mph - N/A   Clear
6:00 PM 89.6 °F 46.4 °F 22% 29.80 in - North 16.1 mph - N/A   Clear
6:30 PM 86.0 °F 46.4 °F 25% 29.80 in - NNW 18.4 mph - N/A   Clear
7:00 PM 86.0 °F 48.2 °F 27% 29.83 in - NNW 16.1 mph - N/A   Clear
7:30 PM 84.2 °F 50.0 °F 30% 29.83 in - NNW 13.8 mph - N/A   Clear
8:00 PM 82 °F 52 °F 25% 29.84 in 6 mi NNW 13.8 mph - -  
8:00 PM 82.4 °F 51.8 °F 35% 29.83 in - NNW 13.8 mph - N/A   Clear
8:30 PM 80.6 °F 50.0 °F 34% 29.86 in - North 13.8 mph - N/A   Clear
9:00 PM 78.8 °F 51.8 °F 39% 29.86 in - North 12.7 mph - N/A   Clear
9:30 PM 78.8 °F 51.8 °F 39% 29.86 in - North 12.7 mph - N/A   Clear
10:00 PM 77.0 °F 51.8 °F 41% 29.86 in - North 11.5 mph - N/A   Clear
10:30 PM 75.2 °F 53.6 °F 47% 29.86 in - North 13.8 mph - N/A   Clear
11:00 PM 75.2 °F 53.6 °F 47% 29.86 in - North 9.2 mph - N/A   Clear
11:30 PM 73.4 °F 48.2 °F 41% 29.86 in - NE 9.2 mph - N/A   Clear